Погода в Санта-Лузия

Бразилия     19°46′08″S   43°52′46″W
темп.,
°C
ветер,
м/с
пор.,
м/с
влажн.,
%
обл.,
%
осадки,
мм/ч
давл.,
гПа
погр.,
м
17 мая, пн
пн1700:00+15юв119185 0.0 101917
03:00+14юв119460 0.1 101814
06:00+15ююв1192100 0.0 101818
09:00+16в128863 0.1 1020127
12:00+26всв124939 0.0 10171184
15:00+27юз3533100 0.1 10142605
18:00+22ююз1143100 0.0 101413
21:00+18ююв225599 0.0 101612
18 мая, вт
вт1800:00+15юв1168100 0.0 101712
03:00+14юв1169100 0.0 101611
06:00+13юв1173100 0.0 101711
09:00+22вюв1145100 0.0 1018312
12:00+27зюз352983 0.0 10162193
15:00+27зюз34305 0.0 10132281
18:00+20юз114578 0.0 101511
21:00+17юв11552 0.0 101612
19 мая, ср
ср1900:00+15юв11660 0.0 101612
03:00+14юв11720 0.0 101611
06:00+13вюв11800 0.0 101711
09:00+22в11520 0.0 1018396
12:00+28зсз35300 0.0 10152321
15:00+28зюз35270 0.0 10122408
18:00+21з11427 0.0 101411
21:00+18юв22527 0.0 101613
20 мая, чт
чт2000:00+15ююв11610 0.0 101611
03:00+15вюв11665 0.0 101511
06:00+13ююв117115 0.0 101711
09:00+23в1244100 0.0 1017313
12:00+28зсз3427100 0.0 10152291
15:00+29зюз452427 0.0 10122760
18:00+21зюз11395 0.0 101411
21:00+18вюв114816 0.0 101612
21 мая, пт
пт2100:00+16вюв11585 0.0 101611
03:00+15ююв11595 0.0 101511
06:00+15юв11580 0.0 101611
09:00+24в12332 0.0 1017277
12:00+30зсз23205 0.0 10142893
15:00+30зюз33205 0.0 10113115
18:00+22ююз22352 0.0 101311
21:00+18вюв224765 0.0 101519